| time (UTC) | temp F | wind direction | speed knots | gust knots | rain 1hr in | rain 24hr in | rain mn in | humidity % | barometer mb |
| 20260903084115 | 62 | 33 | 2.6 | 4.3 | 0.00 | 0.19 | 0.00 | 65 | 858.1 |
| 20260903083503 | 61 | 356 | 1.7 | 3.5 | 0.00 | 0.19 | 0.00 | 63 | 858.1 |
| 20260903082503 | 61 | 351 | 1.7 | 3.5 | 0.00 | 0.19 | 0.00 | 72 | 858.0 |
| 20260903081116 | 59 | 24 | 1.7 | 3.5 | 0.00 | 0.19 | 0.00 | 76 | 857.9 |
| 20260903080503 | 59 | 24 | 0.9 | 2.6 | 0.00 | 0.19 | 0.00 | 77 | 857.9 |
| 20260903075503 | 57 | 3 | 1.7 | 3.5 | 0.00 | 0.19 | 0.00 | 75 | 857.7 |
| 20260903074116 | 57 | 78 | 0.9 | 3.5 | 0.00 | 0.19 | 0.00 | 80 | 857.7 |
| 20260903073502 | 56 | 27 | 0.0 | 2.6 | 0.00 | 0.19 | 0.00 | 81 | 857.6 |
| 20260903072502 | 56 | 118 | 1.7 | 3.5 | 0.00 | 0.19 | 0.00 | 86 | 857.6 |
| 20260903071116 | 55 | 108 | 0.9 | 2.6 | 0.00 | 0.19 | 0.00 | 89 | 857.5 |
| 20260903070503 | 53 | 182 | 0.9 | 1.7 | 0.00 | 0.19 | 0.00 | 94 | 857.3 |
| 20260903065503 | 52 | 161 | 1.7 | 5.2 | 0.00 | 0.19 | 0.00 | 94 | 857.2 |
| 20260903064115 | 52 | 174 | 3.5 | 6.1 | 0.00 | 0.19 | 0.00 | 93 | 857.2 |
| 20260903063503 | 52 | 169 | 4.3 | 7.0 | 0.00 | 0.19 | 0.00 | 93 | 857.2 |
| 20260903062503 | 51 | 177 | 4.3 | 6.1 | 0.00 | 0.19 | 0.00 | 93 | 857.2 |
| 20260903061116 | 51 | 173 | 2.6 | 5.2 | 0.00 | 0.19 | 0.00 | 94 | 857.1 |
| 20260903060503 | 51 | 178 | 2.6 | 4.3 | 0.00 | 0.19 | 0.00 | 94 | 857.1 |
| 20260903055502 | 51 | 164 | 2.6 | 5.2 | 0.00 | 0.19 | 0.00 | 94 | 857.1 |
| 20260903054115 | 51 | 181 | 3.5 | 4.3 | 0.00 | 0.19 | 0.00 | 94 | 857.1 |
| 20260903053503 | 51 | 164 | 2.6 | 3.5 | 0.00 | 0.19 | 0.00 | 95 | 857.0 |
| 20260903052503 | 51 | 175 | 3.5 | 5.2 | 0.00 | 0.19 | 0.00 | 94 | 856.9 |
| 20260903051116 | 51 | 168 | 2.6 | 5.2 | 0.00 | 0.19 | 0.00 | 95 | 856.8 |
| 20260903050502 | 51 | 170 | 1.7 | 5.2 | 0.00 | 0.19 | 0.00 | 94 | 856.8 |
| 20260903045503 | 51 | 176 | 1.7 | 3.5 | 0.00 | 0.19 | 0.00 | 94 | 856.8 |
| 20260903044115 | 51 | 211 | 1.7 | 2.6 | 0.00 | 0.19 | 0.00 | 94 | 856.7 |
| 20260903043502 | 51 | 171 | 2.6 | 4.3 | 0.00 | 0.19 | 0.00 | 94 | 856.8 |
| 20260903042503 | 51 | 181 | 2.6 | 4.3 | 0.00 | 0.19 | 0.00 | 94 | 856.9 |
| 20260903041115 | 51 | 168 | 3.5 | 6.1 | 0.00 | 0.19 | 0.00 | 94 | 856.8 |
| 20260903040503 | 52 | 180 | 4.3 | 6.1 | 0.00 | 0.19 | 0.00 | 95 | 856.8 |
| 20260903035503 | 52 | 186 | 4.3 | 6.1 | 0.00 | 0.19 | 0.00 | 95 | 856.9 |
| 20260903034502 | 52 | 180 | 3.5 | 5.2 | 0.00 | 0.19 | 0.00 | 94 | 857.0 |
| 20260903033502 | 52 | 191 | 2.6 | 4.3 | 0.00 | 0.19 | 0.00 | 95 | 856.9 |
| 20260903032503 | 52 | 157 | 1.7 | 3.5 | 0.00 | 0.19 | 0.00 | 95 | 856.9 |
| 20260903031116 | 52 | 184 | 1.7 | 3.5 | 0.00 | 0.19 | 0.00 | 94 | 857.0 |
| 20260903030503 | 52 | 207 | 1.7 | 2.6 | 0.00 | 0.19 | 0.00 | 94 | 857.0 |
| 20260903025503 | 53 | 190 | 1.7 | 3.5 | 0.00 | 0.19 | 0.00 | 94 | 857.0 |
| 20260903024503 | 53 | 207 | 1.7 | 3.5 | 0.00 | 0.19 | 0.00 | 94 | 856.9 |
| 20260903023503 | 53 | 181 | 2.6 | 3.5 | 0.00 | 0.19 | 0.00 | 94 | 856.9 |
| 20260903022503 | 53 | 217 | 2.6 | 3.5 | 0.00 | 0.19 | 0.00 | 94 | 856.9 |
| 20260903021115 | 54 | 204 | 1.7 | 2.6 | 0.00 | 0.19 | 0.00 | 93 | 857.0 |
| 20260903020503 | 54 | 187 | 2.6 | 3.5 | 0.00 | 0.19 | 0.00 | 94 | 857.1 |
| 20260903015503 | 55 | 219 | 2.6 | 3.5 | 0.00 | 0.19 | 0.00 | 93 | 857.2 |
| 20260903014115 | 55 | 221 | 2.6 | 3.5 | 0.00 | 0.19 | 0.00 | 94 | 857.2 |
| 20260903013502 | 55 | 174 | 2.6 | 5.2 | 0.00 | 0.19 | 0.00 | 93 | 857.2 |
| 20260903012502 | 55 | 174 | 3.5 | 6.1 | 0.00 | 0.19 | 0.00 | 94 | 857.3 |
| 20260903011116 | 55 | 186 | 3.5 | 5.2 | 0.00 | 0.19 | 0.00 | 94 | 857.3 |
| 20260903010503 | 55 | 174 | 3.5 | 5.2 | 0.00 | 0.19 | 0.00 | 94 | 857.3 |
| 20260903005503 | 55 | 196 | 3.5 | 4.3 | 0.00 | 0.19 | 0.00 | 94 | 857.3 |
| 20260903004116 | 55 | 173 | 1.7 | 3.5 | 0.00 | 0.19 | 0.00 | 94 | 857.3 |
| 20260903003503 | 55 | 211 | 2.6 | 3.5 | 0.00 | 0.19 | 0.00 | 94 | 857.3 |
| 20260903002503 | 55 | 167 | 2.6 | 3.5 | 0.00 | 0.19 | 0.00 | 94 | 857.3 |
| 20260903001515 | 56 | 183 | 2.6 | 4.3 | 0.00 | 0.19 | 0.00 | 94 | 857.3 |
| 20260903000502 | 55 | 169 | 1.7 | 3.5 | 0.00 | 0.19 | 0.00 | 94 | 857.3 |
| 20260902235502 | 56 | 219 | 2.6 | 3.5 | 0.00 | 0.19 | 0.00 | 94 | 857.3 |
| 20260902234116 | 56 | 205 | 1.7 | 2.6 | 0.00 | 0.19 | 0.00 | 94 | 857.3 |
| 20260902232502 | 56 | 188 | 2.6 | 3.5 | 0.00 | 0.19 | 0.00 | 94 | 857.4 |
| 20260902231503 | 56 | 174 | 2.6 | 4.3 | 0.00 | 0.19 | 0.00 | 94 | 857.3 |
| 20260902230502 | 56 | 176 | 2.6 | 4.3 | 0.00 | 0.19 | 0.00 | 94 | 857.3 |
| 20260902225503 | 56 | 231 | 1.7 | 3.5 | 0.00 | 0.19 | 0.00 | 93 | 857.3 |
| 20260902224116 | 56 | 263 | 1.7 | 2.6 | 0.00 | 0.19 | 0.00 | 92 | 857.2 |
| 20260902223503 | 56 | 192 | 3.5 | 5.2 | 0.00 | 0.19 | 0.00 | 92 | 857.2 |
| 20260902222503 | 56 | 246 | 3.5 | 5.2 | 0.00 | 0.19 | 0.00 | 93 | 857.2 |
| 20260902221116 | 56 | 204 | 1.7 | 3.5 | 0.00 | 0.19 | 0.00 | 93 | 857.1 |
| 20260902220502 | 56 | 227 | 1.7 | 3.5 | 0.00 | 0.19 | 0.19 | 93 | 857.0 |
| 20260902215502 | 56 | 197 | 3.5 | 6.1 | 0.00 | 0.19 | 0.19 | 92 | 857.0 |
| 20260902214116 | 56 | 175 | 5.2 | 8.7 | 0.00 | 0.19 | 0.19 | 92 | 857.0 |
| 20260902213502 | 56 | 175 | 6.1 | 7.8 | 0.02 | 0.19 | 0.19 | 93 | 857.1 |
| 20260902211116 | 56 | 166 | 5.2 | 8.7 | 0.16 | 0.19 | 0.19 | 91 | 857.1 |
| 20260902210503 | 56 | 179 | 5.2 | 8.7 | 0.19 | 0.19 | 0.19 | 93 | 857.2 |
| 20260902205503 | 56 | 209 | 4.3 | 7.8 | 0.19 | 0.19 | 0.19 | 93 | 857.2 |
| 20260902204117 | 56 | 172 | 3.5 | 7.0 | 0.19 | 0.19 | 0.19 | 92 | 857.2 |
| 20260902203502 | 57 | 208 | 4.3 | 10.4 | 0.19 | 0.19 | 0.19 | 92 | 857.1 |
| 20260902202503 | 57 | 236 | 5.2 | 9.6 | 0.17 | 0.17 | 0.17 | 92 | 857.0 |
| 20260902201116 | 58 | 184 | 5.2 | 8.7 | 0.08 | 0.08 | 0.08 | 87 | 857.2 |
| 20260902200503 | 58 | 158 | 3.5 | 7.8 | 0.03 | 0.03 | 0.03 | 84 | 857.2 |
| 20260902195503 | 59 | 179 | 3.5 | 5.2 | 0.00 | 0.00 | 0.00 | 78 | 856.9 |
| 20260902194116 | 59 | 166 | 2.6 | 5.2 | 0.00 | 0.00 | 0.00 | 77 | 856.8 |
| 20260902193503 | 59 | 153 | 1.7 | 4.3 | 0.00 | 0.00 | 0.00 | 76 | 856.7 |
| 20260902192502 | 59 | 173 | 2.6 | 3.5 | 0.00 | 0.00 | 0.00 | 76 | 856.7 |
| 20260902191116 | 59 | 166 | 1.7 | 2.6 | 0.00 | 0.00 | 0.00 | 77 | 856.6 |
| 20260902190502 | 59 | 156 | 1.7 | 3.5 | 0.00 | 0.00 | 0.00 | 76 | 856.5 |
| 20260902185503 | 59 | 202 | 3.5 | 5.2 | 0.00 | 0.00 | 0.00 | 76 | 856.2 |
| 20260902184116 | 60 | 176 | 3.5 | 5.2 | 0.00 | 0.00 | 0.00 | 76 | 856.2 |
| 20260902183503 | 61 | 164 | 3.5 | 6.1 | 0.00 | 0.00 | 0.00 | 74 | 856.0 |
| 20260902182503 | 61 | 179 | 3.5 | 7.0 | 0.00 | 0.00 | 0.00 | 74 | 855.9 |
| 20260902181117 | 61 | 192 | 5.2 | 7.0 | 0.00 | 0.00 | 0.00 | 74 | 855.7 |
| 20260902180503 | 62 | 192 | 4.3 | 7.0 | 0.00 | 0.00 | 0.00 | 73 | 855.8 |
| 20260902175503 | 62 | 184 | 5.2 | 7.0 | 0.00 | 0.00 | 0.00 | 72 | 855.7 |
| 20260902174116 | 62 | 180 | 4.3 | 7.0 | 0.00 | 0.00 | 0.00 | 73 | 855.6 |
| 20260902173502 | 63 | 184 | 5.2 | 7.0 | 0.00 | 0.00 | 0.00 | 73 | 855.5 |
| 20260902172503 | 63 | 168 | 4.3 | 7.0 | 0.00 | 0.00 | 0.00 | 70 | 855.3 |
| 20260902171116 | 64 | 167 | 3.5 | 6.1 | 0.00 | 0.00 | 0.00 | 70 | 855.3 |
| 20260902170503 | 64 | 168 | 4.3 | 7.0 | 0.00 | 0.00 | 0.00 | 69 | 855.4 |
| 20260902165503 | 65 | 187 | 3.5 | 6.1 | 0.00 | 0.00 | 0.00 | 70 | 855.4 |
| 20260902164116 | 65 | 160 | 3.5 | 7.0 | 0.00 | 0.00 | 0.00 | 68 | 855.5 |
| 20260902163503 | 66 | 182 | 3.5 | 6.1 | 0.00 | 0.00 | 0.00 | 67 | 855.5 |
| 20260902162503 | 66 | 179 | 3.5 | 7.0 | 0.00 | 0.00 | 0.00 | 67 | 855.5 |
| 20260902161116 | 67 | 186 | 3.5 | 7.8 | 0.00 | 0.00 | 0.00 | 65 | 855.4 |
| 20260902160502 | 67 | 227 | 3.5 | 4.3 | 0.00 | 0.00 | 0.00 | 58 | 855.5 |
| 20260902155503 | 68 | 209 | 2.6 | 5.2 | 0.00 | 0.00 | 0.00 | 59 | 855.7 |
| 20260902154116 | 69 | 196 | 1.7 | 4.3 | 0.00 | 0.00 | 0.00 | 56 | 855.8 |
| 20260902153503 | 70 | 206 | 1.7 | 5.2 | 0.00 | 0.00 | 0.00 | 52 | 855.9 |
| 20260902152502 | 72 | 224 | 1.7 | 3.5 | 0.00 | 0.00 | 0.00 | 53 | 856.0 |
| 20260902151116 | 75 | 273 | 2.6 | 6.1 | 0.00 | 0.00 | 0.00 | 46 | 856.2 |
| 20260902150503 | 73 | 339 | 2.6 | 7.8 | 0.00 | 0.00 | 0.00 | 42 | 856.0 |
| 20260902145503 | 73 | 344 | 1.7 | 6.1 | 0.00 | 0.00 | 0.00 | 42 | 856.1 |
| 20260902144116 | 71 | 348 | 3.5 | 7.8 | 0.00 | 0.00 | 0.00 | 45 | 855.9 |
| 20260902143502 | 72 | 344 | 2.6 | 7.0 | 0.00 | 0.00 | 0.00 | 42 | 856.0 |
| 20260902142503 | 71 | 341 | 3.5 | 7.8 | 0.00 | 0.00 | 0.00 | 42 | 856.0 |
| 20260902141116 | 71 | 258 | 0.0 | 4.3 | 0.00 | 0.00 | 0.00 | 48 | 856.0 |
| 20260902140503 | 72 | 33 | 1.7 | 5.2 | 0.00 | 0.00 | 0.00 | 42 | 856.0 |
| 20260902135503 | 73 | 82 | 3.5 | 6.1 | 0.00 | 0.00 | 0.00 | 45 | 856.0 |
| 20260902134115 | 71 | 47 | 4.3 | 9.6 | 0.00 | 0.00 | 0.00 | 44 | 855.9 |
| 20260902133503 | 71 | 44 | 4.3 | 7.8 | 0.00 | 0.00 | 0.00 | 49 | 856.0 |
| 20260902132503 | 72 | 28 | 3.5 | 7.0 | 0.00 | 0.00 | 0.00 | 47 | 856.3 |
| 20260902131116 | 71 | 316 | 2.6 | 9.6 | 0.00 | 0.00 | 0.00 | 49 | 856.1 |
| 20260902130503 | 71 | 284 | 0.9 | 8.7 | 0.00 | 0.00 | 0.00 | 43 | 856.2 |
| 20260902125503 | 71 | 239 | 2.6 | 5.2 | 0.00 | 0.00 | 0.00 | 55 | 856.3 |
| 20260902124115 | 70 | 174 | 0.0 | 3.5 | 0.00 | 0.00 | 0.00 | 54 | 856.2 |
| 20260902123503 | 70 | 31 | 1.7 | 5.2 | 0.00 | 0.00 | 0.00 | 54 | 856.2 |
| 20260902122503 | 70 | 18 | 3.5 | 7.0 | 0.00 | 0.00 | 0.00 | 52 | 856.3 |
| 20260902121116 | 71 | 4 | 2.6 | 6.1 | 0.00 | 0.00 | 0.00 | 49 | 856.4 |
| 20260902120502 | 71 | 7 | 2.6 | 5.2 | 0.00 | 0.00 | 0.00 | 48 | 856.4 |
| 20260902115502 | 70 | 39 | 2.6 | 5.2 | 0.00 | 0.00 | 0.00 | 52 | 856.3 |
| 20260902114116 | 70 | 36 | 2.6 | 6.1 | 0.00 | 0.00 | 0.00 | 56 | 856.5 |
| 20260902113503 | 69 | 28 | 2.6 | 5.2 | 0.00 | 0.00 | 0.00 | 55 | 856.5 |
| 20260902112503 | 69 | 23 | 3.5 | 6.1 | 0.00 | 0.00 | 0.00 | 53 | 856.5 |
| 20260902111116 | 69 | 25 | 2.6 | 6.1 | 0.00 | 0.00 | 0.00 | 55 | 856.6 |
| 20260902110503 | 68 | 33 | 3.5 | 6.1 | 0.00 | 0.00 | 0.00 | 55 | 856.5 |
| 20260902105502 | 68 | 25 | 3.5 | 6.1 | 0.00 | 0.00 | 0.00 | 57 | 856.7 |
| 20260902104116 | 67 | 27 | 2.6 | 5.2 | 0.00 | 0.00 | 0.00 | 58 | 856.9 |
| 20260902103503 | 66 | 350 | 2.6 | 5.2 | 0.00 | 0.00 | 0.00 | 56 | 856.8 |
| 20260902102502 | 66 | 350 | 2.6 | 5.2 | 0.00 | 0.00 | 0.00 | 61 | 856.9 |
| 20260902101116 | 65 | 360 | 2.6 | 6.1 | 0.00 | 0.00 | 0.00 | 62 | 857.0 |
| 20260902100503 | 65 | 13 | 2.6 | 5.2 | 0.00 | 0.00 | 0.00 | 64 | 857.0 |
| 20260902095503 | 64 | 4 | 2.6 | 6.1 | 0.00 | 0.00 | 0.00 | 64 | 856.9 |
| 20260902094116 | 63 | 9 | 2.6 | 5.2 | 0.00 | 0.00 | 0.00 | 67 | 857.1 |
| 20260902093503 | 62 | 20 | 3.5 | 6.1 | 0.00 | 0.00 | 0.00 | 68 | 856.9 |
| 20260902092502 | 62 | 35 | 4.3 | 7.0 | 0.00 | 0.00 | 0.00 | 70 | 856.9 |
| 20260902091115 | 62 | 33 | 3.5 | 7.0 | 0.00 | 0.00 | 0.00 | 71 | 856.9 |
| 20260902090503 | 61 | 30 | 3.5 | 6.1 | 0.00 | 0.00 | 0.00 | 71 | 856.7 |